Location: Kikino
(54.4440°N, 112.0940°W)
Time: 09:06:50
(UTC+00:00)

NOAA 15 - Visible Passes

Search period start: 08 December 2023 00:00
Search period end: 18 December 2023 00:00
Orbit: 796 x 811 km, 98.6° (Epoch: 08 December)

Date Brightness Start Highest point End Pass type
(mag) Time Alt. Az. Time Alt. Az. Time Alt. Az.
08 Dec 4.7 01:24:32 10° SE 01:29:39 52° ENE 01:34:47 10° N visible
08 Dec 6.2 03:04:57 10° SSW 03:09:39 32° W 03:14:24 10° NNW visible
08 Dec 7.7 13:34:31 10° ENE 13:36:01 11° E 13:37:32 10° E visible
09 Dec 5.1 00:59:28 10° SE 01:04:13 35° ENE 01:08:59 10° N visible
09 Dec 5.4 02:38:46 10° S 02:43:53 49° W 02:49:02 10° NNW visible
09 Dec 6.2 14:46:16 10° NNE 14:51:12 39° E 14:56:05 10° SSE visible
10 Dec 5.6 00:34:40 10° ESE 00:38:53 25° NE 00:43:07 10° N visible
10 Dec 4.7 02:12:55 10° S 02:18:12 75° WSW 02:23:31 10° NNW visible
10 Dec 7.3 03:56:04 10° WSW 03:58:54 14° W 04:01:45 10° NW visible
10 Dec 6.9 14:21:01 10° NE 14:25:23 26° E 14:29:43 10° SSE visible
11 Dec 5.9 00:10:10 10° E 00:13:38 18° NE 00:17:06 10° N visible
11 Dec 4.4 01:47:21 10° SSE 01:52:37 74° ENE 01:57:54 10° NNW visible
11 Dec 6.8 03:28:52 10° SW 03:32:57 22° W 03:37:02 10° NW visible
11 Dec 7.4 13:56:05 10° NE 13:59:27 17° E 14:02:48 10° SE visible
11 Dec 6.2 23:46:09 10° ENE 23:48:27 13° NE 23:50:46 10° NNE visible
12 Dec 4.7 01:22:02 10° SE 01:27:07 50° ENE 01:32:13 10° N visible
12 Dec 6.1 03:02:19 10° SSW 03:07:05 33° W 03:11:52 10° NNW visible
12 Dec 7.8 13:32:21 10° ENE 13:33:25 11° E 13:34:30 10° E visible
13 Dec 5.2 00:56:59 10° ESE 01:01:42 34° ENE 01:06:25 10° N visible
13 Dec 5.3 02:36:10 10° S 02:41:19 51° W 02:46:29 10° NNW visible
13 Dec 6.3 14:43:44 10° NNE 14:48:38 37° E 14:53:28 10° SSE visible
14 Dec 5.6 00:32:12 10° ESE 00:36:22 24° NE 00:40:31 10° N visible
14 Dec 4.6 02:10:21 10° SSE 02:15:39 78° WSW 02:20:58 10° NNW visible
14 Dec 7.3 03:53:19 10° WSW 03:56:18 15° W 03:59:18 10° NW visible
14 Dec 7.0 14:18:30 10° NE 14:22:47 25° E 14:27:03 10° SE visible
15 Dec 6.0 00:07:45 10° E 00:11:07 17° NE 00:14:28 10° N visible
15 Dec 4.4 01:44:49 10° SSE 01:50:04 71° ENE 01:55:20 10° NNW visible
15 Dec 6.7 03:26:12 10° SW 03:30:21 23° W 03:34:31 10° NW visible
15 Dec 7.4 13:53:37 10° NE 13:56:51 16° E 14:00:04 10° SE visible
15 Dec 6.3 23:43:47 10° ENE 23:45:57 13° NE 23:48:05 10° NNE visible
16 Dec 4.8 01:19:31 10° SE 01:24:34 48° ENE 01:29:37 10° N visible
16 Dec 6.0 02:59:42 10° SSW 03:04:30 35° W 03:09:20 10° NNW visible
16 Dec 8.0 13:30:44 10° E 13:30:48 10° E 13:30:54 10° E visible
17 Dec 5.2 00:54:30 10° ESE 00:59:09 33° ENE 01:03:49 10° N visible
17 Dec 5.3 02:33:36 10° S 02:38:45 53° W 02:43:55 10° NNW visible
17 Dec 6.3 14:41:12 10° NNE 14:46:02 36° E 14:50:50 10° SSE visible
